Location: Bailleul
(50.3375°N, 2.8513°E)
Time: 03:35:39
(UTC+00:00)

Cosmos 1980 - Pass Details

Date: 29 October 2021
Orbit: 839 x 847 km, 71.0° (Epoch: 01 December)

Event Time Altitude Azimuth Distance (km) Brightness Sun altitude
Exits shadow 05:36:45 - 325° (NW) 3,339 6.4 -9.7°
Reaches altitude 10° 05:39:09 10° 319° (NW) 2,472 5.7 -9.3°
Maximum altitude 05:44:21 39° 252° (WSW) 1,245 4.2 -8.5°
Drops below altitude 10° 05:49:34 10° 185° (S) 2,461 6.2 -7.7°
Sets 05:52:08 0° 178° (S) 3,393 7.0 -7.3°
